Weather in Dvurechye

Russia / Jewish Autonomous Oblast     48°58′10″N   131°34′58″E
temp.,
°C
wind,
m/s
gust,
m/s
humid.,
%
clouds,
%
prec.,
mm/h
press.,
hPa
HPBL,
m
28 february, sun
sun2801:00−14ene2396100 2.1 1016145
04:00−15ene1197100 2.9 101532
07:00−14w1596100 0.1 1018123
10:00−13wnw31179100 0.1 1021580
13:00−12nw5107299 0.0 1022764
16:00−11wnw6116883 0.0 10231001
19:00−16wnw412850 0.0 1025628
22:00−19nw313869 0.0 1027721
1 march, mon
mon101:00−21nw313850 0.0 1029651
04:00−22wnw314820 0.0 1032606
07:00−25wnw24860 0.0 103285
10:00−21wnw38740 0.0 1033429
13:00−16wnw48640 0.0 10321120
16:00−15wnw5106739 0.0 10301384
19:00−19wnw258771 0.0 103087
22:00−24nw229535 0.0 103220
2 march, tue
tue201:00−26nw12930 0.0 103220
04:00−27wnw11880 0.0 103219
07:00−27wnw11880 0.0 103219
10:00−21wsw11790 0.0 1031166
13:00−15w356925 0.0 10301118
16:00−14wnw467163 0.1 10281251
19:00−19wnw118867 0.0 102720
22:00−22nne119033 0.0 102920
3 march, wed
wed301:00−22ne119441 0.0 102720
04:00−22ene119770 0.0 102620
07:00−22e1299100 0.0 102423
10:00−20ene2496100 0.5 1022236
13:00−14ese3584100 0.3 1019584
16:00−14ese3686100 0.3 1016592
19:00−15ese2796100 1.0 1014486
22:00−15ene2497100 2.1 1013159
4 march, thu
thu401:00−16ene1297100 0.4 101133
04:00−19nne119899 0.4 101120
07:00−19wnw009985 0.0 101120
10:00−13sse119292 0.1 1011139
13:00−5ssw1484100 0.1 1009599
16:00−2w3688100 0.8 1009719
19:00−8nw3888100 0.4 1011361
22:00−13wnw31089100 0.4 1015506